Year,Month,Day,Hour,Minute,Value (Times are PST for temperature in C)
2009,07,25,00,00,20.00
2009,07,25,00,01,19.90
2009,07,25,00,02,19.90
2009,07,25,00,03,19.90
2009,07,25,00,04,19.90
2009,07,25,00,05,19.90
2009,07,25,00,06,19.90
2009,07,25,00,07,19.90
2009,07,25,00,08,19.90
2009,07,25,00,09,19.90
2009,07,25,00,10,19.90
2009,07,25,00,11,19.90
2009,07,25,00,12,20.00
2009,07,25,00,13,19.90
2009,07,25,00,14,19.90
2009,07,25,00,15,19.90
2009,07,25,00,16,19.90
2009,07,25,00,17,19.90
2009,07,25,00,18,19.90
2009,07,25,00,19,19.80
2009,07,25,00,20,19.80
2009,07,25,00,21,19.70
2009,07,25,00,22,19.50
2009,07,25,00,23,19.40
2009,07,25,00,24,19.30
2009,07,25,00,25,19.30
2009,07,25,00,26,19.20
2009,07,25,00,27,19.20
2009,07,25,00,28,19.20
2009,07,25,00,29,19.30
2009,07,25,00,30,19.30
2009,07,25,00,31,19.30
2009,07,25,00,32,19.30
2009,07,25,00,33,19.30
2009,07,25,00,34,19.40
2009,07,25,00,35,19.40
2009,07,25,00,36,19.30
2009,07,25,00,37,19.30
2009,07,25,00,38,19.20
2009,07,25,00,39,19.00
2009,07,25,00,40,18.90
2009,07,25,00,41,18.80
2009,07,25,00,42,18.70
2009,07,25,00,43,18.60
2009,07,25,00,44,18.50
2009,07,25,00,45,18.50
2009,07,25,00,46,18.40
2009,07,25,00,47,18.30
2009,07,25,00,48,18.30
2009,07,25,00,49,18.30
2009,07,25,00,50,18.20
2009,07,25,00,51,18.20
2009,07,25,00,52,18.20
2009,07,25,00,53,18.10
2009,07,25,00,54,18.10
2009,07,25,00,55,18.10
2009,07,25,00,56,18.10
2009,07,25,00,57,18.10
2009,07,25,00,58,18.10
2009,07,25,00,59,18.10
2009,07,25,01,00,18.10
2009,07,25,01,01,18.10
2009,07,25,01,02,18.10
2009,07,25,01,03,18.10
2009,07,25,01,04,18.10
2009,07,25,01,05,18.10
2009,07,25,01,06,18.10
2009,07,25,01,07,18.10
2009,07,25,01,08,18.00
2009,07,25,01,09,18.00
2009,07,25,01,10,18.00
2009,07,25,01,11,18.00
2009,07,25,01,12,18.00
2009,07,25,01,13,18.00
2009,07,25,01,14,18.00
2009,07,25,01,15,18.00
2009,07,25,01,16,18.00
2009,07,25,01,17,18.00
2009,07,25,01,18,18.00
2009,07,25,01,19,18.00
2009,07,25,01,20,18.10
2009,07,25,01,21,18.10
2009,07,25,01,22,18.10
2009,07,25,01,23,18.10
2009,07,25,01,24,18.10
2009,07,25,01,25,18.10
2009,07,25,01,26,18.10
2009,07,25,01,27,18.10
2009,07,25,01,28,18.10
2009,07,25,01,29,18.20
2009,07,25,01,30,18.20
2009,07,25,01,31,18.10
2009,07,25,01,32,18.10
2009,07,25,01,33,18.10
2009,07,25,01,34,18.10
2009,07,25,01,35,18.10
2009,07,25,01,36,18.10
2009,07,25,01,37,18.00
2009,07,25,01,38,18.00
2009,07,25,01,39,17.90
2009,07,25,01,40,17.90
2009,07,25,01,41,17.80
2009,07,25,01,42,17.80
2009,07,25,01,43,17.80
2009,07,25,01,44,17.70
2009,07,25,01,45,17.70
2009,07,25,01,46,17.70
2009,07,25,01,47,17.70
2009,07,25,01,48,17.60
2009,07,25,01,49,17.60
2009,07,25,01,50,17.60
2009,07,25,01,51,17.60
2009,07,25,01,52,17.50
2009,07,25,01,53,17.50
2009,07,25,01,54,17.50
2009,07,25,01,55,17.40
2009,07,25,01,56,17.40
2009,07,25,01,57,17.40
2009,07,25,01,58,17.40
2009,07,25,01,59,17.30
2009,07,25,02,00,17.30
2009,07,25,02,01,17.30
2009,07,25,02,02,17.30
2009,07,25,02,03,17.30
2009,07,25,02,04,17.20
2009,07,25,02,05,17.20
2009,07,25,02,06,17.20
2009,07,25,02,07,17.20
2009,07,25,02,08,17.20
2009,07,25,02,09,17.20
2009,07,25,02,10,17.10
2009,07,25,02,11,17.10
2009,07,25,02,12,17.10
2009,07,25,02,13,17.10
2009,07,25,02,14,17.10
2009,07,25,02,15,17.10
2009,07,25,02,16,17.10
2009,07,25,02,17,17.00
2009,07,25,02,18,17.00
2009,07,25,02,19,17.00
2009,07,25,02,20,17.00
2009,07,25,02,21,17.00
2009,07,25,02,22,17.00
2009,07,25,02,23,17.00
2009,07,25,02,24,17.00
2009,07,25,02,25,17.00
2009,07,25,02,26,17.00
2009,07,25,02,27,17.00
2009,07,25,02,28,17.00
2009,07,25,02,29,16.90
2009,07,25,02,30,16.90
2009,07,25,02,31,16.90
2009,07,25,02,32,16.90
2009,07,25,02,33,16.90
2009,07,25,02,34,16.80
2009,07,25,02,35,16.80
2009,07,25,02,36,16.80
2009,07,25,02,37,16.70
2009,07,25,02,38,16.70
2009,07,25,02,39,16.70
2009,07,25,02,40,16.60
2009,07,25,02,41,16.60
2009,07,25,02,42,16.60
2009,07,25,02,43,16.60
2009,07,25,02,44,16.50
2009,07,25,02,45,16.50
2009,07,25,02,46,16.50
2009,07,25,02,47,16.40
2009,07,25,02,48,16.40
2009,07,25,02,49,16.40
2009,07,25,02,50,16.40
2009,07,25,02,51,16.40
2009,07,25,02,52,16.40
2009,07,25,02,53,16.30
2009,07,25,02,54,16.30
2009,07,25,02,55,16.30
2009,07,25,02,56,16.30
2009,07,25,02,57,16.30
2009,07,25,02,58,16.30
2009,07,25,02,59,16.30
2009,07,25,03,00,16.30
2009,07,25,03,01,16.30
2009,07,25,03,02,16.30
2009,07,25,03,03,16.30
2009,07,25,03,04,16.30
2009,07,25,03,05,16.30
2009,07,25,03,06,16.30
2009,07,25,03,07,16.30
2009,07,25,03,08,16.30
2009,07,25,03,09,16.30
2009,07,25,03,10,16.30
2009,07,25,03,11,16.30
2009,07,25,03,12,16.30
2009,07,25,03,13,16.30
2009,07,25,03,14,16.30
2009,07,25,03,15,16.30
2009,07,25,03,16,16.30
2009,07,25,03,17,16.30
2009,07,25,03,18,16.30
2009,07,25,03,19,16.30
2009,07,25,03,20,16.30
2009,07,25,03,21,16.30
2009,07,25,03,22,16.40
2009,07,25,03,23,16.50
2009,07,25,03,24,16.60
2009,07,25,03,25,16.70
2009,07,25,03,26,16.70
2009,07,25,03,27,16.70
2009,07,25,03,28,16.80
2009,07,25,03,29,16.80
2009,07,25,03,30,16.90
2009,07,25,03,31,16.90
2009,07,25,03,32,16.90
2009,07,25,03,33,16.90
2009,07,25,03,34,16.90
2009,07,25,03,35,16.90
2009,07,25,03,36,16.90
2009,07,25,03,37,17.00
2009,07,25,03,38,17.00
2009,07,25,03,39,17.10
2009,07,25,03,40,17.10
2009,07,25,03,41,17.20
2009,07,25,03,42,17.20
2009,07,25,03,43,17.30
2009,07,25,03,44,17.30
2009,07,25,03,45,17.30
2009,07,25,03,46,17.20
2009,07,25,03,47,17.30
2009,07,25,03,48,17.30
2009,07,25,03,49,17.40
2009,07,25,03,50,17.50
2009,07,25,03,51,17.50
2009,07,25,03,52,17.60
2009,07,25,03,53,17.60
2009,07,25,03,54,17.70
2009,07,25,03,55,17.70
2009,07,25,03,56,17.70
2009,07,25,03,57,17.60
2009,07,25,03,58,17.60
2009,07,25,03,59,17.60
2009,07,25,04,00,17.60
2009,07,25,04,01,17.60
2009,07,25,04,02,17.50
2009,07,25,04,03,17.50
2009,07,25,04,04,17.50
2009,07,25,04,05,17.50
2009,07,25,04,06,17.40
2009,07,25,04,07,17.40
2009,07,25,04,08,17.30
2009,07,25,04,09,17.30
2009,07,25,04,10,17.20
2009,07,25,04,11,17.20
2009,07,25,04,12,17.20
2009,07,25,04,13,17.10
2009,07,25,04,14,17.10
2009,07,25,04,15,17.10
2009,07,25,04,16,17.10
2009,07,25,04,17,17.10
2009,07,25,04,18,17.10
2009,07,25,04,19,17.10
2009,07,25,04,20,17.00
2009,07,25,04,21,17.00
2009,07,25,04,22,17.00
2009,07,25,04,23,16.90
2009,07,25,04,24,16.90
2009,07,25,04,25,16.90
2009,07,25,04,26,16.80
2009,07,25,04,27,16.80
2009,07,25,04,28,16.80
2009,07,25,04,29,16.70
2009,07,25,04,30,16.70
2009,07,25,04,31,16.70
2009,07,25,04,32,16.60
2009,07,25,04,33,16.60
2009,07,25,04,34,16.60
2009,07,25,04,35,16.60
2009,07,25,04,36,16.60
2009,07,25,04,37,16.50
2009,07,25,04,38,16.50
2009,07,25,04,39,16.50
2009,07,25,04,40,16.50
2009,07,25,04,41,16.40
2009,07,25,04,42,16.40
2009,07,25,04,43,16.40
2009,07,25,04,44,16.40
2009,07,25,04,45,16.40
2009,07,25,04,46,16.40
2009,07,25,04,47,16.40
2009,07,25,04,48,16.50
2009,07,25,04,49,16.50
2009,07,25,04,50,16.50
2009,07,25,04,51,16.60
2009,07,25,04,52,16.60
2009,07,25,04,53,16.60
2009,07,25,04,54,16.60
2009,07,25,04,55,16.60
2009,07,25,04,56,16.60
2009,07,25,04,57,16.60
2009,07,25,04,58,16.60
2009,07,25,04,59,16.60
2009,07,25,05,00,16.60
2009,07,25,05,01,16.60
2009,07,25,05,02,16.60
2009,07,25,05,03,16.60
2009,07,25,05,04,16.60
2009,07,25,05,05,16.70
2009,07,25,05,06,16.70
2009,07,25,05,07,16.70
2009,07,25,05,08,16.70
2009,07,25,05,09,16.70
2009,07,25,05,10,16.70
2009,07,25,05,11,16.70
2009,07,25,05,12,16.70
2009,07,25,05,13,16.70
2009,07,25,05,14,16.70
2009,07,25,05,15,16.70
2009,07,25,05,16,16.70
2009,07,25,05,17,16.70
2009,07,25,05,18,16.70
2009,07,25,05,19,16.70
2009,07,25,05,20,16.70
2009,07,25,05,21,16.70
2009,07,25,05,22,16.70
2009,07,25,05,23,16.70
2009,07,25,05,24,16.70
2009,07,25,05,25,16.70
2009,07,25,05,26,16.70
2009,07,25,05,27,16.70
2009,07,25,05,28,16.60
2009,07,25,05,29,16.60
2009,07,25,05,30,16.60
2009,07,25,05,31,16.60
2009,07,25,05,32,16.60
2009,07,25,05,33,16.60
2009,07,25,05,34,16.60
2009,07,25,05,35,16.60
2009,07,25,05,36,16.60
2009,07,25,05,37,16.60
2009,07,25,05,38,16.60
2009,07,25,05,39,16.60
2009,07,25,05,40,16.60
2009,07,25,05,41,16.60
2009,07,25,05,42,16.60
2009,07,25,05,43,16.60
2009,07,25,05,44,16.60
2009,07,25,05,45,16.60
2009,07,25,05,46,16.60
2009,07,25,05,47,16.60
2009,07,25,05,48,16.60
2009,07,25,05,49,16.60
2009,07,25,05,50,16.60
2009,07,25,05,51,16.60
2009,07,25,05,52,16.60
2009,07,25,05,53,16.60
2009,07,25,05,54,16.60
2009,07,25,05,55,16.60
2009,07,25,05,56,16.60
2009,07,25,05,57,16.60
2009,07,25,05,58,16.60
2009,07,25,05,59,16.60
2009,07,25,06,00,16.60
2009,07,25,06,01,16.60
2009,07,25,06,02,16.60
2009,07,25,06,03,16.60
2009,07,25,06,04,16.60
2009,07,25,06,05,16.60
2009,07,25,06,06,16.60
2009,07,25,06,07,16.60
2009,07,25,06,08,16.60
2009,07,25,06,09,16.60
2009,07,25,06,10,16.60
2009,07,25,06,11,16.60
2009,07,25,06,12,16.60
2009,07,25,06,13,16.60
2009,07,25,06,14,16.60
2009,07,25,06,15,16.70
2009,07,25,06,16,16.70
2009,07,25,06,17,16.70
2009,07,25,06,18,16.70
2009,07,25,06,19,16.70
2009,07,25,06,20,16.70
2009,07,25,06,21,16.70
2009,07,25,06,22,16.80
2009,07,25,06,23,16.80
2009,07,25,06,24,16.80
2009,07,25,06,25,16.80
2009,07,25,06,26,16.80
2009,07,25,06,27,16.80
2009,07,25,06,28,16.80
2009,07,25,06,29,16.90
2009,07,25,06,30,16.90
2009,07,25,06,31,16.90
2009,07,25,06,32,16.90
2009,07,25,06,33,16.90
2009,07,25,06,34,17.00
2009,07,25,06,35,17.00
2009,07,25,06,36,17.00
2009,07,25,06,37,17.00
2009,07,25,06,38,17.00
2009,07,25,06,39,17.00
2009,07,25,06,40,17.00
2009,07,25,06,41,17.00
2009,07,25,06,42,17.10
2009,07,25,06,43,17.10
2009,07,25,06,44,17.10
2009,07,25,06,45,17.10
2009,07,25,06,46,17.10
2009,07,25,06,47,17.20
2009,07,25,06,48,17.20
2009,07,25,06,49,17.20
2009,07,25,06,50,17.30
2009,07,25,06,51,17.30
2009,07,25,06,52,17.30
2009,07,25,06,53,17.30
2009,07,25,06,54,17.40
2009,07,25,06,55,17.40
2009,07,25,06,56,17.40
2009,07,25,06,57,17.50
2009,07,25,06,58,17.50
2009,07,25,06,59,17.60
2009,07,25,07,00,17.60
2009,07,25,07,01,17.60
2009,07,25,07,02,17.70
2009,07,25,07,03,17.70
2009,07,25,07,04,17.70
2009,07,25,07,05,17.70
2009,07,25,07,06,17.80
2009,07,25,07,07,17.80
2009,07,25,07,08,17.80
2009,07,25,07,09,17.80
2009,07,25,07,10,17.80
2009,07,25,07,11,17.90
2009,07,25,07,12,17.90
2009,07,25,07,13,17.90
2009,07,25,07,14,17.90
2009,07,25,07,15,18.00
2009,07,25,07,16,18.00
2009,07,25,07,17,18.10
2009,07,25,07,18,18.10
2009,07,25,07,19,18.10
2009,07,25,07,20,18.20
2009,07,25,07,21,18.20
2009,07,25,07,22,18.20
2009,07,25,07,23,18.20
2009,07,25,07,24,18.20
2009,07,25,07,25,18.20
2009,07,25,07,26,18.20
2009,07,25,07,27,18.20
2009,07,25,07,28,18.20
2009,07,25,07,29,18.20
2009,07,25,07,30,18.20
2009,07,25,07,31,18.20
2009,07,25,07,32,18.20
2009,07,25,07,33,18.20
2009,07,25,07,34,18.20
2009,07,25,07,35,18.20
2009,07,25,07,36,18.20
2009,07,25,07,37,18.20
2009,07,25,07,38,18.20
2009,07,25,07,39,18.30
2009,07,25,07,40,18.30
2009,07,25,07,41,18.30
2009,07,25,07,42,18.30
2009,07,25,07,43,18.30
2009,07,25,07,44,18.30
2009,07,25,07,45,18.40
2009,07,25,07,46,18.40
2009,07,25,07,47,18.50
2009,07,25,07,48,18.50
2009,07,25,07,49,18.60
2009,07,25,07,50,18.60
2009,07,25,07,51,18.70
2009,07,25,07,52,18.70
2009,07,25,07,53,18.70
2009,07,25,07,54,18.70
2009,07,25,07,55,18.80
2009,07,25,07,56,18.80
2009,07,25,07,57,18.80
2009,07,25,07,58,18.90
2009,07,25,07,59,18.90
2009,07,25,08,00,18.90
2009,07,25,08,01,18.90
2009,07,25,08,02,18.90
2009,07,25,08,03,19.00
2009,07,25,08,04,19.00
2009,07,25,08,05,19.00
2009,07,25,08,06,19.00
2009,07,25,08,07,19.10
2009,07,25,08,08,19.10
2009,07,25,08,09,19.10
2009,07,25,08,10,19.10
2009,07,25,08,11,19.10
2009,07,25,08,12,19.10
2009,07,25,08,13,19.10
2009,07,25,08,14,19.20
2009,07,25,08,15,19.20
2009,07,25,08,16,19.20
2009,07,25,08,17,19.30
2009,07,25,08,18,19.30
2009,07,25,08,19,19.40
2009,07,25,08,20,19.50
2009,07,25,08,21,19.60
2009,07,25,08,22,19.70
2009,07,25,08,23,19.70
2009,07,25,08,24,19.90
2009,07,25,08,25,20.00
2009,07,25,08,26,20.10
2009,07,25,08,27,20.20
2009,07,25,08,28,20.40
2009,07,25,08,29,20.50
2009,07,25,08,30,20.60
2009,07,25,08,31,20.70
2009,07,25,08,32,20.70
2009,07,25,08,33,20.80
2009,07,25,08,34,20.90
2009,07,25,08,35,20.90
2009,07,25,08,36,20.90
2009,07,25,08,37,20.90
2009,07,25,08,38,20.90
2009,07,25,08,39,20.90
2009,07,25,08,40,20.90
2009,07,25,08,41,20.90
2009,07,25,08,42,20.90
2009,07,25,08,43,20.90
2009,07,25,08,44,20.90
2009,07,25,08,45,20.90
2009,07,25,08,46,21.00
2009,07,25,08,47,21.00
2009,07,25,08,48,21.10
2009,07,25,08,49,21.20
2009,07,25,08,50,21.20
2009,07,25,08,51,21.20
2009,07,25,08,52,21.20
2009,07,25,08,53,21.20
2009,07,25,08,54,21.30
2009,07,25,08,55,21.30
2009,07,25,08,56,21.30
2009,07,25,08,57,21.30
2009,07,25,08,58,21.30
2009,07,25,08,59,21.30
2009,07,25,09,00,21.30
2009,07,25,09,01,21.20
2009,07,25,09,02,21.30
2009,07,25,09,03,21.30
2009,07,25,09,04,21.30
2009,07,25,09,05,21.30
2009,07,25,09,06,21.30
2009,07,25,09,07,21.30
2009,07,25,09,08,21.30
2009,07,25,09,09,21.30
2009,07,25,09,10,21.40
2009,07,25,09,11,21.50
2009,07,25,09,12,21.50
2009,07,25,09,13,21.50
2009,07,25,09,14,21.60
2009,07,25,09,15,21.60
2009,07,25,09,16,21.60
2009,07,25,09,17,21.60
2009,07,25,09,18,21.60
2009,07,25,09,19,21.50
2009,07,25,09,20,21.60
2009,07,25,09,21,21.60
2009,07,25,09,22,21.60
2009,07,25,09,23,21.60
2009,07,25,09,24,21.60
2009,07,25,09,25,21.60
2009,07,25,09,26,21.60
2009,07,25,09,27,21.50
2009,07,25,09,28,21.50
2009,07,25,09,29,21.50
2009,07,25,09,30,21.50
2009,07,25,09,31,21.50
2009,07,25,09,32,21.50
2009,07,25,09,33,21.60
2009,07,25,09,34,21.60
2009,07,25,09,35,21.60
2009,07,25,09,36,21.70
2009,07,25,09,37,21.70
2009,07,25,09,38,21.80
2009,07,25,09,39,21.80
2009,07,25,09,40,21.80
2009,07,25,09,41,21.70
2009,07,25,09,42,21.70
2009,07,25,09,43,21.70
2009,07,25,09,44,21.70
2009,07,25,09,45,21.70
2009,07,25,09,46,21.70
2009,07,25,09,47,21.70
2009,07,25,09,48,21.70
2009,07,25,09,49,21.70
2009,07,25,09,50,21.70
2009,07,25,09,51,21.60
2009,07,25,09,52,21.60
2009,07,25,09,53,21.60
2009,07,25,09,54,21.60
2009,07,25,09,55,21.60
2009,07,25,09,56,21.60
2009,07,25,09,57,21.50
2009,07,25,09,58,21.40
2009,07,25,09,59,21.30
2009,07,25,10,00,21.30
2009,07,25,10,01,21.20
2009,07,25,10,02,21.20
2009,07,25,10,03,21.20
2009,07,25,10,04,21.10
2009,07,25,10,05,21.10
2009,07,25,10,06,21.20
2009,07,25,10,07,21.20
2009,07,25,10,08,21.20
2009,07,25,10,09,21.20
2009,07,25,10,10,21.30
2009,07,25,10,11,21.30
2009,07,25,10,12,21.40
2009,07,25,10,13,21.40
2009,07,25,10,14,21.50
2009,07,25,10,15,21.50
2009,07,25,10,16,21.50
2009,07,25,10,17,21.50
2009,07,25,10,18,21.50
2009,07,25,10,19,21.50
2009,07,25,10,20,21.60
2009,07,25,10,21,21.60
2009,07,25,10,22,21.70
2009,07,25,10,23,21.80
2009,07,25,10,24,21.80
2009,07,25,10,25,21.70
2009,07,25,10,26,21.70
2009,07,25,10,27,21.70
2009,07,25,10,28,21.70
2009,07,25,10,29,21.70
2009,07,25,10,30,21.80
2009,07,25,10,31,21.80
2009,07,25,10,32,21.80
2009,07,25,10,33,21.80
2009,07,25,10,34,21.90
2009,07,25,10,35,21.90
2009,07,25,10,36,21.90
2009,07,25,10,37,21.90
2009,07,25,10,38,21.80
2009,07,25,10,39,21.80
2009,07,25,10,40,21.80
2009,07,25,10,41,21.80
2009,07,25,10,42,21.90
2009,07,25,10,43,22.00
2009,07,25,10,44,22.00
2009,07,25,10,45,22.10
2009,07,25,10,46,22.20
2009,07,25,10,47,22.30
2009,07,25,10,48,22.40
2009,07,25,10,49,22.40
2009,07,25,10,50,22.40
2009,07,25,10,51,22.40
2009,07,25,10,52,22.40
2009,07,25,10,53,22.40
2009,07,25,10,54,22.40
2009,07,25,10,55,22.40
2009,07,25,10,56,22.40
2009,07,25,10,57,22.50
2009,07,25,10,58,22.60
2009,07,25,10,59,22.60
2009,07,25,11,00,22.70
2009,07,25,11,01,22.80
2009,07,25,11,02,22.80
2009,07,25,11,03,22.80
2009,07,25,11,04,22.80
2009,07,25,11,05,22.80
2009,07,25,11,06,22.70
2009,07,25,11,07,22.70
2009,07,25,11,08,22.70
2009,07,25,11,09,22.70
2009,07,25,11,10,22.60
2009,07,25,11,11,22.60
2009,07,25,11,12,22.60
2009,07,25,11,13,22.60
2009,07,25,11,14,22.70
2009,07,25,11,15,22.70
2009,07,25,11,16,22.70
2009,07,25,11,17,22.80
2009,07,25,11,18,22.80
2009,07,25,11,19,22.80
2009,07,25,11,20,22.70
2009,07,25,11,21,22.60
2009,07,25,11,22,22.60
2009,07,25,11,23,22.50
2009,07,25,11,24,22.60
2009,07,25,11,25,22.60
2009,07,25,11,26,22.50
2009,07,25,11,27,22.50
2009,07,25,11,28,22.50
2009,07,25,11,29,22.50
2009,07,25,11,30,22.50
2009,07,25,11,31,22.50
2009,07,25,11,32,22.60
2009,07,25,11,33,22.70
2009,07,25,11,34,22.70
2009,07,25,11,35,22.70
2009,07,25,11,36,22.80
2009,07,25,11,37,22.80
2009,07,25,11,38,22.80
2009,07,25,11,39,22.80
2009,07,25,11,40,22.80
2009,07,25,11,41,22.70
2009,07,25,11,42,22.70
2009,07,25,11,43,22.70
2009,07,25,11,44,22.70
2009,07,25,11,45,22.70
2009,07,25,11,46,22.70
2009,07,25,11,47,22.60
2009,07,25,11,48,22.60
2009,07,25,11,49,22.50
2009,07,25,11,50,22.50
2009,07,25,11,51,22.50
2009,07,25,11,52,22.50
2009,07,25,11,53,22.60
2009,07,25,11,54,22.60
2009,07,25,11,55,22.70
2009,07,25,11,56,22.80
2009,07,25,11,57,22.90
2009,07,25,11,58,23.00
2009,07,25,11,59,23.10
2009,07,25,12,00,23.10
2009,07,25,12,01,23.10
2009,07,25,12,02,23.10
2009,07,25,12,03,23.00
2009,07,25,12,04,22.90
2009,07,25,12,05,22.90
2009,07,25,12,06,22.80
2009,07,25,12,07,22.90
2009,07,25,12,08,22.90
2009,07,25,12,09,23.00
2009,07,25,12,10,23.10
2009,07,25,12,11,23.10
2009,07,25,12,12,23.20
2009,07,25,12,13,23.30
2009,07,25,12,14,23.40
2009,07,25,12,15,23.50
2009,07,25,12,16,23.50
2009,07,25,12,17,23.50
2009,07,25,12,18,23.40
2009,07,25,12,19,23.50
2009,07,25,12,20,23.50
2009,07,25,12,21,23.60
2009,07,25,12,22,23.50
2009,07,25,12,23,23.60
2009,07,25,12,24,23.60
2009,07,25,12,25,23.60
2009,07,25,12,26,23.60
2009,07,25,12,27,23.70
2009,07,25,12,28,23.70
2009,07,25,12,29,23.70
2009,07,25,12,30,23.70
2009,07,25,12,31,23.70
2009,07,25,12,32,23.80
2009,07,25,12,33,23.80
2009,07,25,12,34,23.80
2009,07,25,12,35,23.80
2009,07,25,12,36,23.80
2009,07,25,12,37,23.80
2009,07,25,12,38,23.90
2009,07,25,12,39,23.80
2009,07,25,12,40,23.70
2009,07,25,12,41,23.60
2009,07,25,12,42,23.50
2009,07,25,12,43,23.50
2009,07,25,12,44,23.50
2009,07,25,12,45,23.50
2009,07,25,12,46,23.50
2009,07,25,12,47,23.60
2009,07,25,12,48,23.60
2009,07,25,12,49,23.70
2009,07,25,12,50,23.70
2009,07,25,12,51,23.70
2009,07,25,12,52,23.80
2009,07,25,12,53,23.80
2009,07,25,12,54,23.80
2009,07,25,12,55,23.80
2009,07,25,12,56,23.80
2009,07,25,12,57,23.80
2009,07,25,12,58,23.90
2009,07,25,12,59,23.90
2009,07,25,13,00,23.90
2009,07,25,13,01,24.00
2009,07,25,13,02,24.10
2009,07,25,13,03,24.20
2009,07,25,13,04,24.20
2009,07,25,13,05,24.20
2009,07,25,13,06,24.20
2009,07,25,13,07,24.20
2009,07,25,13,08,24.20
2009,07,25,13,09,24.20
2009,07,25,13,10,24.20
2009,07,25,13,11,24.20
2009,07,25,13,12,24.20
2009,07,25,13,13,24.20
2009,07,25,13,14,24.20
2009,07,25,13,15,24.20
2009,07,25,13,16,24.10
2009,07,25,13,17,24.00
2009,07,25,13,18,23.90
2009,07,25,13,19,23.80
2009,07,25,13,20,23.80
2009,07,25,13,21,23.70
2009,07,25,13,22,23.80
2009,07,25,13,23,23.80
2009,07,25,13,24,23.90
2009,07,25,13,25,23.90
2009,07,25,13,26,24.00
2009,07,25,13,27,24.10
2009,07,25,13,28,24.10
2009,07,25,13,29,24.10
2009,07,25,13,30,24.00
2009,07,25,13,31,23.90
2009,07,25,13,32,23.90
2009,07,25,13,33,23.90
2009,07,25,13,34,23.90
2009,07,25,13,35,23.90
2009,07,25,13,36,24.00
2009,07,25,13,37,24.00
2009,07,25,13,38,24.10
2009,07,25,13,39,24.10
2009,07,25,13,40,24.20
2009,07,25,13,41,24.20
2009,07,25,13,42,24.20
2009,07,25,13,43,24.10
2009,07,25,13,44,24.10
2009,07,25,13,45,24.00
2009,07,25,13,46,23.90
2009,07,25,13,47,23.90
2009,07,25,13,48,23.80
2009,07,25,13,49,23.80
2009,07,25,13,50,23.90
2009,07,25,13,51,23.90
2009,07,25,13,52,24.00
2009,07,25,13,53,24.00
2009,07,25,13,54,24.10
2009,07,25,13,55,24.10
2009,07,25,13,56,24.20
2009,07,25,13,57,24.30
2009,07,25,13,58,24.30
2009,07,25,13,59,24.40
2009,07,25,14,00,24.40
2009,07,25,14,01,24.40
2009,07,25,14,02,24.50
2009,07,25,14,03,24.70
2009,07,25,14,04,24.80
2009,07,25,14,05,24.90
2009,07,25,14,06,25.10
2009,07,25,14,07,25.20
2009,07,25,14,08,25.20
2009,07,25,14,09,25.30
2009,07,25,14,10,25.40
2009,07,25,14,11,25.40
2009,07,25,14,12,25.50
2009,07,25,14,13,25.50
2009,07,25,14,14,25.60
2009,07,25,14,15,25.70
2009,07,25,14,16,25.80
2009,07,25,14,17,25.80
2009,07,25,14,18,25.80
2009,07,25,14,19,25.80
2009,07,25,14,20,25.80
2009,07,25,14,21,25.90
2009,07,25,14,22,25.90
2009,07,25,14,23,25.90
2009,07,25,14,24,25.90
2009,07,25,14,25,25.90
2009,07,25,14,26,26.00
2009,07,25,14,27,26.10
2009,07,25,14,28,26.20
2009,07,25,14,29,26.40
2009,07,25,14,30,26.60
2009,07,25,14,31,26.70
2009,07,25,14,32,26.80
2009,07,25,14,33,26.80
2009,07,25,14,34,26.70
2009,07,25,14,35,26.60
2009,07,25,14,36,26.60
2009,07,25,14,37,26.60
2009,07,25,14,38,26.60
2009,07,25,14,39,26.50
2009,07,25,14,40,26.50
2009,07,25,14,41,26.60
2009,07,25,14,42,26.60
2009,07,25,14,43,26.70
2009,07,25,14,44,26.80
2009,07,25,14,45,26.90
2009,07,25,14,46,26.90
2009,07,25,14,47,26.90
2009,07,25,14,48,27.00
2009,07,25,14,49,27.10
2009,07,25,14,50,27.10
2009,07,25,14,51,27.00
2009,07,25,14,52,27.00
2009,07,25,14,53,26.90
2009,07,25,14,54,26.90
2009,07,25,14,55,26.80
2009,07,25,14,56,26.90
2009,07,25,14,57,26.90
2009,07,25,14,58,26.90
2009,07,25,14,59,26.90
2009,07,25,15,00,26.90
2009,07,25,15,01,26.90
2009,07,25,15,02,26.80
2009,07,25,15,03,26.80
2009,07,25,15,04,26.80
2009,07,25,15,05,26.80
2009,07,25,15,06,26.70
2009,07,25,15,07,26.70
2009,07,25,15,08,26.80
2009,07,25,15,09,26.80
2009,07,25,15,10,26.80
2009,07,25,15,11,26.70
2009,07,25,15,12,26.60
2009,07,25,15,13,26.50
2009,07,25,15,14,26.40
2009,07,25,15,15,26.30
2009,07,25,15,16,26.10
2009,07,25,15,17,26.00
2009,07,25,15,18,25.80
2009,07,25,15,19,25.70
2009,07,25,15,20,25.60
2009,07,25,15,21,25.50
2009,07,25,15,22,25.50
2009,07,25,15,23,25.40
2009,07,25,15,24,25.30
2009,07,25,15,25,25.20
2009,07,25,15,26,25.10
2009,07,25,15,27,25.00
2009,07,25,15,28,24.90
2009,07,25,15,29,24.80
2009,07,25,15,30,24.70
2009,07,25,15,31,24.60
2009,07,25,15,32,24.60
2009,07,25,15,33,24.50
2009,07,25,15,34,24.40
2009,07,25,15,35,24.30
2009,07,25,15,36,24.30
2009,07,25,15,37,24.20
2009,07,25,15,38,24.10
2009,07,25,15,39,24.00
2009,07,25,15,40,23.90
2009,07,25,15,41,23.80
2009,07,25,15,42,23.70
2009,07,25,15,43,23.70
2009,07,25,15,44,23.70
2009,07,25,15,45,23.70
2009,07,25,15,46,23.80
2009,07,25,15,47,23.80
2009,07,25,15,48,23.80
2009,07,25,15,49,23.80
2009,07,25,15,50,23.80
2009,07,25,15,51,23.80
2009,07,25,15,52,23.70
2009,07,25,15,53,23.50
2009,07,25,15,54,23.30
2009,07,25,15,55,23.10
2009,07,25,15,56,23.00
2009,07,25,15,57,23.00
2009,07,25,15,58,22.90
2009,07,25,15,59,22.90
2009,07,25,16,00,23.00
2009,07,25,16,01,23.10
2009,07,25,16,02,23.20
2009,07,25,16,03,23.40
2009,07,25,16,04,23.60
2009,07,25,16,05,23.80
2009,07,25,16,06,24.10
2009,07,25,16,07,24.30
2009,07,25,16,08,24.60
2009,07,25,16,09,24.70
2009,07,25,16,10,24.80
2009,07,25,16,11,24.70
2009,07,25,16,12,24.60
2009,07,25,16,13,24.50
2009,07,25,16,14,24.40
2009,07,25,16,15,24.40
2009,07,25,16,16,24.50
2009,07,25,16,17,24.50
2009,07,25,16,18,24.60
2009,07,25,16,19,24.60
2009,07,25,16,20,24.60
2009,07,25,16,21,24.70
2009,07,25,16,22,24.60
2009,07,25,16,23,24.60
2009,07,25,16,24,24.60
2009,07,25,16,25,24.60
2009,07,25,16,26,24.60
2009,07,25,16,27,24.60
2009,07,25,16,28,24.60
2009,07,25,16,29,24.50
2009,07,25,16,30,24.40
2009,07,25,16,31,24.30
2009,07,25,16,32,24.20
2009,07,25,16,33,24.20
2009,07,25,16,34,24.20
2009,07,25,16,35,24.20
2009,07,25,16,36,24.10
2009,07,25,16,37,24.10
2009,07,25,16,38,24.10
2009,07,25,16,39,24.10
2009,07,25,16,40,24.30
2009,07,25,16,41,24.30
2009,07,25,16,42,24.40
2009,07,25,16,43,24.60
2009,07,25,16,44,24.70
2009,07,25,16,45,24.80
2009,07,25,16,46,24.90
2009,07,25,16,47,25.00
2009,07,25,16,48,25.10
2009,07,25,16,49,25.20
2009,07,25,16,50,25.30
2009,07,25,16,51,25.40
2009,07,25,16,52,25.50
2009,07,25,16,53,25.50
2009,07,25,16,54,25.60
2009,07,25,16,55,25.60
2009,07,25,16,56,25.60
2009,07,25,16,57,25.60
2009,07,25,16,58,25.60
2009,07,25,16,59,25.50
2009,07,25,17,00,25.40
2009,07,25,17,01,25.30
2009,07,25,17,02,25.20
2009,07,25,17,03,25.20
2009,07,25,17,04,25.20
2009,07,25,17,05,25.30
2009,07,25,17,06,25.30
2009,07,25,17,07,25.30
2009,07,25,17,08,25.40
2009,07,25,17,09,25.50
2009,07,25,17,10,25.70
2009,07,25,17,11,25.70
2009,07,25,17,12,25.80
2009,07,25,17,13,25.80
2009,07,25,17,14,25.80
2009,07,25,17,15,25.70
2009,07,25,17,16,25.70
2009,07,25,17,17,25.50
2009,07,25,17,18,25.50
2009,07,25,17,19,25.40